Location: El Águila
(10.4167°N, 66.7167°W)
Time: 19:49:20
(UTC+00:00)

SWIFT - Pass Details

Date: 01 April 2023
Orbit: 527 x 541 km, 20.6° (Epoch: 30 May)

Event Time Altitude Azimuth Distance (km) Brightness Sun altitude
Rises 23:04:27 0° 251° (WSW) 2,639 7.2 -7.4°
Reaches altitude 10° 23:06:42 10° 252° (WSW) 1,751 6.1 -8.0°
Maximum altitude 23:10:46 87° 342° (NNW) 526 2.2 -9.0°
Enters shadow 23:14:45 11° 70° (ENE) 1,714 4.3 -9.9°
